Retour au catalogue

DFH-1

ActifCommunicationsLEO
NORAD 4382·PAYLOAD·🇨🇳 China

Lancé Apr 24, 1970 depuis Jiuquan Satellite Launch Center

Loading…

Prochains Passages (prochaines 24 heures)

TLE

FraisSource: Space-Track

Époque: Sep 14, 2026, 12:28 UTC

1 04382U 70034A   26257.51971188  .00000227  00000-0  43768-4 0  9996
2 04382  68.4261 239.4868 1032142 259.7708  88.5571 13.14637015657426

Suivez DFH-1 en temps réel avec AllMySat

Download on the App Store